Location: ???? ?????????
(44.3677°N, 135.2344°E)
Time: 06:45:36
(UTC+00:00)

CZ-2D R/B - Pass Details

Date: 19 May 2025
Orbit: 790 x 841 km, 98.8° (Epoch: 23 June)

Event Time Altitude Azimuth Distance (km) Brightness Sun altitude
Rises 18:44:32 0° 2° (N) 3,404 6.0 -7.2°
Reaches altitude 10° 18:47:22 10° 348° (NNW) 2,468 5.0 -6.8°
Maximum altitude 18:51:27 22° 299° (WNW) 1,758 3.7 -6.2°
Drops below altitude 10° 18:55:33 10° 250° (WSW) 2,457 4.0 -5.6°
Enters shadow 18:56:38 - 244° (WSW) 2,792 4.2 -5.4°
